Retour au catalogue

STARLINK-35688

ActifCommunicationsVLEO
NORAD 67019·PAYLOAD·🇺🇸 United States

Lancé Dec 10, 2025 depuis Vandenberg Space Force Base

Loading…

Prochains Passages (prochaines 24 heures)

TLE

FraisSource: CelesTrak SupGP

Époque: Sep 15, 2026, 03:13 UTC

1 67019C 25293S   26258.13451389  .00056896  00000+0  47678-2 0  2586
2 67019  70.0020 336.9994 0003516 267.7836 315.2623 14.98303475    18

Suivez STARLINK-35688 en temps réel avec AllMySat

Download on the App Store